Location: Unspecified
(47.9110°N, 14.3980°E)
Time: 00:09:03
(UTC+00:00)

Cosmos 389 Rocket - Pass Details

Date: 06 August 2020
Orbit: 443 x 475 km, 81.1° (Epoch: 23 September)

Event Time Altitude Azimuth Distance (km) Brightness Sun altitude
Rises 20:19:59 0° 338° (NNW) 2,453 7.5 -15.5°
Reaches altitude 10° 20:22:14 10° 325° (NW) 1,578 6.5 -15.8°
Maximum altitude 20:25:10 26° 267° (W) 909 4.3 -16.1°
Enters shadow 20:28:03 10° 209° (SSW) 1,557 4.9 -16.4°
